www.pogodaiklimat.ru

Погода и климат >> Архив погоды >> Россия >> Сахалинская область >> Поронайск


ПОГОДА в Поронайске

  • Прогноз погоды в Поронайске
  • Монитор погоды в Поронайске
  • Климат города

АРХИВ ПОГОДЫ в Поронайске

Время (UTC), дата Ветер
(напр.,м/с)
 
Видим.   Явления Облачность Т
(С)
Тd
(С)
f
(%)
Тe
(С)
Тes
(С)
Комфортность P
(гПа)
Po
(гПа)
Тmin
(С)
Tmax
(С)
R
(мм)
R24
(мм)
S
(см)
15 11.07 Ю 2-3
{5}
1000 м слабый ливневой дождь 10/10 200 м
[Cb cap]
+11.1 +11.0 99 +10 +10 1012.9 1011.9
18 11.07 СЗ 1-1
{3}
2000 м слабый ливневой дождь 10/10 270 м
[Cb cap]
+10.9 +10.8 99 +10 +10 1012.2 1011.1
21 11.07 штиль 0
{3}
4000 м в посл. час ливневой дождь 10/10 210 м
[St]
+11.5 +11.3 99 +11 +11 1012.0 1010.9 +10.9 4
00 12.07 ЮВ 1-2
{2}
10 км {гроза, ливн. осадки} 10/9 270 м
[Cb cap Ci ing]
+12.5 +11.5 94 +12 +14 1011.8 1010.7
03 12.07 ЮВ 4-5
{6}
20 км 10/9 210 м
[Cb cap Ci ing]
+13.8 +11.9 88 +12 +13 1011.2 1010.1
06 12.07 Ю 2-3
{6}
20 км 10/9 330 м
[Cb cap Ci ing]
+13.4 +11.5 88 +13 +13 1010.9 1009.9
09 12.07 ЮВ 3-4
{4}
20 км 10/10 300 м
[Cb cap]
+12.5 +11.4 93 +11 +11 1010.8 1009.7 +14.4 3
12 12.07 Ю 2-3
{4}
4000 м 10/10 240 м
[Cb cap]
+12.0 +11.3 95 +11 +11 1011.6 1010.5
15 12.07 ЮВ 1-2
{3}
2000 м слабый ливневой дождь 10/10 120 м
[Cb cap]
+11.9 +11.5 97 +12 +12 1011.1 1010.1
18 12.07 ЮВ 2-3
{4}
500 м слабая морось {ливн. осадки} ?/? +11.7 +11.4 98 +10 +10 1010.7 1009.6
21 12.07 Ю 1-1
{3}
500 м туман {морось} ?/? +11.7 +11.5 99 +11 +11 1010.9 1009.8 +11.6 0.4
00 13.07 ЮВ 1-2
{2}
2000 м дымка {морось, туман} 10/10 120 м
[St]
+13.1 +12.3 95 +13 +13 1011.2 1010.1
03 13.07 Ю 3-5
{5}
2000 м слабая морось 10/10 150 м
[St]
+13.6 +12.5 93 +12 +12 1011.2 1010.1
06 13.07 Ю 4-7
{8}
20 км {морось} 10/8 210 м
[St Ac trans Ci ing]
+14.1 +12.5 90 +13 +13 1010.7 1009.6
09 13.07 Ю 5-7
{10}
20 км 8/3 200 м
[St Ac trans Ci]
+13.0 +11.0 88 +11 +11 1010.8 1009.7 +14.7 0.0
12 13.07 Ю 5-7
{9}
20 км 10/0
[Ac trans Cc]
+12.2 +10.8 91 +10 +10 1011.6 1010.5
15 13.07 Ю 4-6
{7}
20 км 10/3 600 м
[Cb cap Ac trans Ci ing]
+12.2 +10.8 91 +10 +10 1012.1 1011.0
18 13.07 Ю 4-5
{6}
20 км 10/0 600 м
[Cb cap Ac trans Ci ing]
+11.9 +10.7 92 +10 +10 1012.1 1011.0
21 13.07 Ю 5-6
{6}
10 км 10/10 210 м
[St]
+12.0 +10.9 93 +9 +9 1012.9 1011.8 +11.9
00 14.07 Ю 3-6
{6}
10 км в посл. час ливневой дождь 10/8 180 м
[Cb cap Ci ing]
+12.2 +10.9 92 +11 +12 1013.5 1012.4 +11.8
03 14.07 Ю 4-5
{6}
4000 м слабый ливневой дождь 10/10 400 м
[Cb cap]
+11.4 +10.8 96 +9 +9 1014.6 1013.5
06 14.07 Ю 5-6
{6}
4000 м слабый ливневой дождь 10/10 360 м
[Cb cap]
+11.1 +10.4 95 +8 +8 1014.4 1013.3
09 14.07 Ю 4-5
{6}
10 км в посл. час ливневой дождь 10/8 300 м
[Cb cap Ci ing]
+10.6 +9.5 93 +8 +8 1014.4 1013.3 +12.4 9
12 14.07 Ю 5-6
{7}
20 км {ливн. осадки} 10/10 330 м
[Cb cap]
+11.0 +9.6 91 +8 +8 1014.7 1013.6
15 14.07 Ю 3-5
{6}
20 км 10/10 240 м
[Cb cap]
+10.9 +9.7 92 +9 +9 1014.4 1013.3
18 14.07 Ю 3-4
{5}
10 км слабый ливневой дождь 10/10 180 м
[Cb cap]
+10.7 +10.0 95 +9 +9 1013.8 1012.7
21 14.07 Ю 2-3
{5}
4000 м дымка {ливн. осадки} 10/10 180 м
[Cb cap]
+10.8 +10.4 97 +9 +9 1013.1 1012.0 +10.6 0.0
00 15.07 В 2-2
{3}
2000 м слабый ливневой дождь 10/10 150 м
[Cb cap]
+11.1 +10.7 97 +10 +10 1012.8 1011.7
03 15.07 В 1-3
{4}
2000 м слабый ливневой дождь 10/10 240 м
[Cb cap]
+11.9 +11.5 97 +12 +12 1011.7 1010.6
06 15.07 В 1-3
{4}
4000 м слабый ливневой дождь 10/10 210 м
[Cb cap]
+12.5 +12.1 97 +12 +12 1010.9 1009.8
09 15.07 В 3-6
{6}
4000 м слабый ливневой дождь 10/10 180 м
[Cb cap]
+13.0 +12.5 97 +12 +12 1010.3 1009.2 +13.1 7
12 15.07 В 4-8
{8}
4000 м слабый ливневой дождь 10/10 210 м
[Cb cap]
+12.3 +11.8 97 +10 +10 1010.9 1009.8
15 15.07 СВ 4-7
{9}
4000 м слабый ливневой дождь 10/10 210 м
[Cb cap]
+11.9 +11.3 96 +10 +10 1010.5 1009.4
18 15.07 СВ 3-4
{9}
2000 м слабый ливневой дождь 10/10 330 м
[Cb cap]
+11.8 +11.4 97 +10 +10 1010.3 1009.2
21 15.07 С 3-4
{7}
2000 м ливневой дождь 10/10 360 м
[Cb cap]
+11.9 +11.6 98 +10 +10 1011.2 1010.1 +11.5 15
00 16.07 СВ 3-5
{5}
2000 м слабый ливневой дождь 10/10 360 м
[Cb cap]
+13.2 +12.4 95 +12 +12 1011.6 1010.5
03 16.07 В 2-3
{5}
4000 м слабый ливневой дождь 10/10 240 м
[Cb cap]
+13.1 +11.6 91 +12 +12 1011.7 1010.6
06 16.07 ЮВ 1-2
{4}
4000 м слабый ливневой дождь 10/10 400 м
[Cb cap]
+12.8 +11.8 94 +13 +13 1011.8 1010.7
09 16.07 ЮВ 2-3
{3}
1000 м слабый ливневой дождь 10/10 200 м
[Cb cap]
+12.1 +11.6 97 +11 +11 1012.3 1011.2 +14.0 3
12 16.07 ЮВ 1-2
{3}
2000 м слабый ливневой дождь 10/10 180 м
[Cb cap]
+10.9 +10.6 98 +10 +10 1013.6 1012.5
15 16.07 СЗ 1-1
{2}
2000 м слабый ливневой дождь 10/10 150 м
[Cb cap]
+10.9 +10.7 99 +10 +10 1013.8 1012.7
18 16.07 штиль 0
{3}
4000 м слабый ливневой дождь 10/10 270 м
[Cb cap]
+11.0 +10.7 98 +10 +10 1013.8 1012.7
21 16.07 З 1-1
{2}
4000 м слабый ливневой дождь 10/10 300 м
[Cb cap]
+12.0 +11.8 99 +12 +12 1014.4 1013.3 +10.8 6
00 17.07 Ю 2-3
{4}
4000 м в посл. час ливневой дождь 10/10 210 м
[Cb cap]
+11.5 +10.6 94 +10 +10 1014.9 1013.8
03 17.07 ЮЗ 4-5
{5}
20 км 9/3 300 м
[Cb cap Ac trans Ci ing]
+13.6 +12.1 91 +12 +17 1014.2 1013.1
06 17.07 Ю 4-6
{7}
20 км 3/1 600 м
[Cu med, cong Cc]
+14.4 +12.1 86 +13 +18 1014.1 1013.0
09 17.07 Ю 3-5
{7}
20 км 1/1 600 м
[Cb cap]
+14.2 +8.3 68 +13 +14 1014.3 1013.3 +14.6 0.0
12 17.07 Ю 4-6
{6}
20 км 1/1 600 м
[Cb cap]
+12.5 +9.4 81 +11 +11 1014.4 1013.3
15 17.07 С 1-2
{6}
20 км ясно +7.6 +7.0 96 +7 +7 1013.9 1012.8
18 17.07 С 2-2
{3}
4000 м 3/3 600 м
[Cb cap]
+5.1 +4.9 99 +2 +2 1014.2 1013.1
21 17.07 СВ 1-2
{3}
500 м туман ясно +8.2 +8.0 99 +7 +11 1014.4 1013.3 +5.1
00 18.07 ЮВ 2-3
{3}
20 км {туман} 8/8 210 м
[St]
+11.8 +10.7 93 +11 +13 1013.8 1012.7
03 18.07 Ю 4-6
{6}
20 км 3/3 300 м
[St]
+13.3 +11.1 87 +12 +20 1012.9 1011.8
06 18.07 Ю 5-7
{8}
20 км ясно +14.0 +10.8 81 +12 +17 1011.8 1010.7
09 18.07 Ю 6-7
{8}
20 км ясно +12.6 +9.6 82 +10 +10 1011.4 1010.3 +14.0
12 18.07 Ю 4-6
{8}
20 км 1/1 600 м
[Cb cap]
+11.7 +9.9 89 +9 +9 1012.0 1010.9

 

Местоположение метеостанции Поронайск (Сахалинская область, Россия): широта 49.22 долгота 143.10 высота над уровнем моря 8 м.

В архиве по умолчанию представлена погода в Поронайске за последнюю неделю. Архивные данные за месяц целиком и за предыдущие месяцы, начиная с января 2011 года, Вы можете получить, выбрав интересующий диапазон дат из раскрывающегося списка и нажав кнопку "Ввод!".


*Определитесь, кто Вы:
робот инопланетянин человек

Внимание! Время в таблицах - всемирное. Для получения местного времени необходимо прибавить поправку, которая в Поронайске равна 11 ч.

Смотрите также архив погоды в соседних городах и на ближайших метеорологических станциях:

Погода в Макарове (Сахалинская область, Россия) (73 км)
Погода в Углегорске (Сахалинская область, Россия) (82 км)
Погода в Первомайском (Сахалинская область, Россия) (84 км)
Погода в Пильво (Сахалинская область, Россия) (117 км)
Погода в Оноре (Сахалинская область, Россия) (120 км)
Погода на Мысе Терпения (Сахалинская область, Россия) (133 км)
Погода в Пограничном (Сахалинская область, Россия) (138 км)
Погода в Ильинском (Сахалинская область, Россия) (153 км)
Погода в Тымовском (Сахалинская область, Россия) (170 км)
Погода в Александровск-Сахалинском (Сахалинская область, Россия) (200 км)

Пояснения к столбцам:

Ветер - указаны скорость ветра в м/с - средняя за 10 мин, порывы в срок и между сроками (в фигурных скобках) и направление, откуда дует ветер: С - северный, СВ - северо-восточный, В - восточный, ЮВ - юго-восточный, Ю - южный, ЮЗ - юго-западный, З - западный, СЗ - северо-западный.
Видимость - горизонтальная дальность видимости в метрах или километрах. При видимости от 1 до 10 км при отсутствии осадков обычно наблюдается дымка, при ухудшении видимости до 1 км и менее - туман. В сухую погоду видимость может ухудшаться дымом, пылью или мглою.
Явления - указаны атмосферные явления, наблюдавшиеся в срок или в последний час перед сроком; фигурными скобками обозначены явления, наблюдавшиеся между сроками (за 1-3 часа до срока); квадратными скобками обозначены град или гололедные отложения с указанием их диаметра в мм.
Облачность - указаны через наклонную черту общая и нижняя облачность в баллах и высота нижней границы облаков в метрах; квадратными скобками обозначены формы облаков: Ci - перистые, Cs - перисто-слоистые, Cc - перисто-кучевые, Ac - высококучевые, As - высокослоистые, Sc - слоисто-кучевые, Ns - слоисто-дождевые, Cu - кучевые, Cb - кучево-дождевые. Подробнее классификацию облаков см. в Атласе облаков (PDF).
T - Температура воздуха - температура, измеренная на высоте 2 м над землей.
Td - Температура точки росы - температура, при понижении до которой содержащийся в воздухе водяной пар достигнет насыщения.
f - Относительная влажность воздуха - влажноcть воздуха, измеренная на высоте 2 м над землей.
Te - Эффективная температура - температура, которую ощущает одетый по сезону человек в тени. Характеристика душности погоды. При расчете учитывается влияние влажности воздуха и скорости ветра на теплоощущения человека.
Tes - Эффективная температура на солнце - температура, которую ощущает человек, с поправкой на солнечный нагрев. Характеристика знойности погоды. Зависит от высоты солнца над горизонтом, облачности и скорости ветра. Ночью, в пасмурную погоду, а также при ветре 12 м/с и более поправка равна нулю.
P - Атмосферное давление - приведенное к уровню моря атмосферное давление.
Po - Атмосферное давление - измеренное на уровне метеостанции атмосферное давление.
Tmin - Минимальная температура - минимум температуры воздуха на высоте 2 м над землей.
Tmax - Максимальная температура - максимум температуры воздуха на высоте 2 м над землей.
R - Количество осадков - Количество выпавших осадков за период времени, мм. При наведении курсора мыши на число - период времени, за который выпало указанное количество осадков.
R24 - Количество осадков - Количество выпавших осадков за 24 часа, мм.
S - Снежный покров - Высота снежного покрова, см. При наведении курсора мыши на число - состояние снежного покрова и степень покрытия местности в баллах.